Location: Newark
(48.9886°N, 1.2358°E)
Time: 16:13:30
(UTC+00:00)

Transit 4A - Pass Details

Date: 27 November 2019
Orbit: 870 x 975 km, 66.8° (Epoch: 09 December)

Event Time Altitude Azimuth Distance (km) Brightness Sun altitude
Exits shadow 04:51:09 55° 299° (WNW) 1,053 7.8 -24.0°
Maximum altitude 04:52:21 71° 239° (WSW) 928 7.6 -23.8°
Drops below altitude 10° 04:58:07 10° 156° (SSE) 2,511 10.5 -22.9°
Sets 05:00:35 0° 155° (SSE) 3,444 11.3 -22.5°
